SCP
0 0 0 0 0 0 -0 -0 -0 -0 0 -0 -0 0 -0 -0 0 -0 0 0 -0 -0 -0 -0 -0 -0 -0 -0 -0 -0 -0 -0 -0 -0 -0 -0 -0 -0 -0 -0 -0 -0 -0 -0 -0 -0 -0 -0 -0
0 0 0 0 0 0 -0 -0 -0 -0 0 -0 -0 0 0 -0 -0 -0 -0 -0 -0 -0 -0 -0 -0 -0 -0 -0 -0 -0 -0 -0 -0 -0 -0 -0 -0 -0 -0 -0 -0 -0 -0 -0 -0 -0 -0 -0 -0
0 0 0 0 0 -0 -0 -0 -0 -0 -0 0 -0 0 -0 -0 0 -0 -0 -0 -0 -0 -0 -0 -0 -0 -0 -0 -0 -0 -0 -0 -0 -0 -0 -0 -0 -0 -0 -0 -0 -0 -0 -0 -0 -0 -0 -0 -0
0 0 0 -0 -0 -0 -0 -0 -0 -0 -0 -0 -0 0 0 -0 -0 -0 -0 -0 -0 -0 -0 -0 -0 -0 -0 -0 -0 -0 -0 -0 -0 -0 -0 -0 -0 -0 -0 -0 -0 -0 -0 -0 -0 -0 -0 -0 -0
0 0 -0 -0 -0 -0 -0 0 -0 -0 -0 -0 -0 0 0 -0 -0 -0 -0 -0 -0 -0 -0 -0 -0 -0 -0 -0 -0 -0 -0 -0 -0 -0 -0 -0 -0 -0 -0 -0 -0 -0 -0 -0 -0 -0 -0 -0 -0
0 0 -0 -0 0 0 0 0 0 0 0 0 -0 0 0 -0 -0 -0 -0 -0 -0 -0 -0 -0 -0 -0 -0 -0 -0 -0 -0 -0 -0 -0 -0 -0 -0 -0 -0 -0 -0 -0 -0 -0 -0 -0 -0 -0 -0
0 -0 -0 0 -0 0 0 0 0 0 0 0 0 0 0 -0 -0 -0 -0 -0 -0 -0 -0 -0 -0 -0 0 -0 -0 -0 -0 -0 -0 -0 -0 -0 -0 -0 -0 -0 -0 -0 -0 -0 -0 -0 -0 -0 -0
0 0 0 0 0 0 0 0 0 0 0 0 0 0 0 -0 -0 -0 -0 -0 -0 0 -0 0 0 -0 -0 -0 -0 -0 -0 0 0 0 0 0 0 -0 -0 0 -0 -0 -0 -0 -0 -0 -0 -0 0
0 0 0 0 0 0 0 0 0 0 0 0 0 0 0 -0 -0 -0 -0 -0 -0 0 0 0 0 0 0 0 0 0 0 0 0 0 0 0 0 0 0 0 0 -0 -0 -0 -0 -0 -0 -0 0
0 0 0 0 0 0 0 0 0 0 0 0 0 0 0 -0 -0 -0 -0 -0 -0 0 0 0 0 0 0 0 0 0 0 0 0 0 0 0 0 0 0 0 0 0 0 -0 -0 0 0 0 0
0 0 0 0 0 0 0 0 0 0 -0 0 -0 -0 -0 -0 -0 -0 -0 0 0 0 0 0 0 0 0 0 0 0 0 0 0 0 0 0 0 0 0 0 0 0 0 0 0 0 0 0 0
0 0 0 0 0 0 0 0 0 -0 -0 0 0 0 -0 -0 -0 0 0 0 0 0 0 0 0 0 0 0 0 0 0 0 0 0 0 0 0 0 0 0 0 0 0 0 0 0 0 0 0
0 0 0 0 0 0 0 0 0 -0 0 0 0 0 0 0 0 0 0 0 0 0 0 0 0 0 0 0 0 0 0 0 0 0 0 0 0 0 0 0 0 0 0 0 0 0 0 0 0
0 0 0 0 0 0 0 0 0 -0 0 0 0 0 0 0 0 0 0 0 0 0 0 0 0 0 0 0 0 0 0 0 0 0 0 0 0 0 0 0 0 0 0 0 0 0 0 0 0
0 0 0 0 0 0 0 0 0 0 0 0 0 0 0 0 0 0 0 0 0 0 0 0 0 0 0 0 0 0 0 0 0 0 0 0 0 0 0 0 0 0 0 0 0 0 0 0 0
0 0 0 0 0 0 0 0 0 0 0 0 0 0 0 0 0 0 0 0 0 0 0 0 0 0 0 0 0 0 0 0 0 0 0 0 0 0 0 0 0 0 0 0 0 0 0 0 0
0 0 0 0 0 0 0 0 0 0 0 0 0 0 0 0 0 0 0 0 0 0 0 0 0 0 0 0 0 0 0 0 0 0 0 0 0 0 0 0 0 0 0 0 0 0 0 0 0
0 0 0 0 0 0 0 0 0 0 0 0 0 0 0 0 0 0 0 0 0 0 0 0 0 0 0 0 0 0 0 0 0 0 0 0 0 0 0 0 0 0 0 0 0 0 0 0 0
0 0 0 0 0 0 0 0 0 0 0 0 0 0 0 0 0 0 0 0 0 0 0 0 0 0 0 0 0 0 0 0 0 0 0 0 0 0 0 0 0 0 0 0 0 0 0 0 0
0 0 0 0 0 0 0 0 0 0 0 0 0 0 0 0 0 0 0 0 0 0 0 0 0 0 0 0 0 0 0 0 0 0 0 0 0 0 0 0 0 0 0 0 0 0 0 0 0
0 0 0 0 0 0 0 -0 0 0 0 0 0 0 0 0 0 0 0 0 0 0 0 0 0 0 0 0 0 0 0 0 0 0 0 0 0 0 0 0 0 0 0 0 0 0 0 0 0
0 0 0 0 0 0 0 0 0 0 0 0 0 0 0 0 0 0 0 0 0 0 0 0 0 0 0 0 0 0 0 0 0 0 0 0 0 0 0 0 0 0 0 0 0 0 0 0 0
0 0 0 0 0 0 0 0 0 -0 0 0 0 0 0 0 0 0 0 0 0 0 0 0 0 0 0 0 0 0 0 0 0 0 0 0 0 0 0 0 0 0 0 0 0 0 0 0 0
0 0 0 0 0 0 0 0 -0 0 0 0 0 0 0 0 0 0 0 0 0 0 0 0 0 0 0 0 0 0 0 0 0 0 0 0 0 0 0 0 0 0 0 0 0 0 0 0 0
0 0 0 0 0 0 0 0 0 0 0 0 0 0 0 0 0 0 0 0 0 0 0 0 0 0 0 0 0 0 0 0 0 0 0 0 0 0 0 0 0 0 0 0 0 0 0 0 0
0 0 0 0 0 0 0 0 0 0 0 0 0 0 0 0 0 0 0 0 0 0 0 0 0 0 0 0 0 0 0 0 0 0 0 0 0 0 0 0 0 0 0 0 0 0 0 0 0
0 0 0 0 0 0 0 0 0 0 0 0 0 0 0 0 0 0 0 0 0 0 0 0 0 0 0 0 0 0 0 0 0 0 0 0 0 0 0 0 0 0 0 0 0 0 0 0 0
0 0 0 0 0 0 0 0 0 0 0 0 0 0 0 0 0 0 0 0 0 0 0 0 0 0 0 0 0 0 0 0 0 0 0 0 0 0 0 0 0 0 0 0 0 0 0 0 0
0 0 0 0 0 0 0 0 0 0 0 0 0 0 0 0 0 0 0 0 0 0 0 0 0 0 0 0 0 0 0 0 0 0 0 0 0 0 0 0 0 0 0 0 0 0 0 0 0
0 0 0 0 0 0 0 -0 0 0 0 0 0 0 0 0 0 0 0 0 0 -0 -0 0 0 0 0 0 0 0 0 0 0 0 0 0 0 0 0 0 0 0 0 0 0 0 0 0 0
Wind_Speed_500mb
4 1 5 7 10 9 7 9 3 7 8 7 6 2 10 10 14 7 19 22 28 32 31 32 28 25 20 15 13 13 14 17 20 23 23 24 23 24 26 26 27 39 23 23 29 30 32 32 32
4 4 3 9 9 8 12 8 7 7 10 9 5 4 6 10 8 11 24 26 31 30 28 32 30 27 21 16 14 14 12 15 18 20 23 24 24 25 24 23 32 31 26 22 27 29 32 31 31
7 8 11 6 7 5 8 5 13 15 14 8 5 3 4 6 6 22 14 33 32 29 27 31 31 28 23 18 15 14 12 13 15 17 20 22 23 24 24 23 25 25 28 21 26 28 30 30 31
4 5 10 14 4 4 5 9 16 21 9 5 1 6 4 6 18 13 26 32 32 29 28 30 31 29 24 21 17 14 13 12 13 15 18 20 22 23 23 23 24 24 21 22 24 24 26 27 28
7 9 12 12 7 0 4 4 15 15 11 11 9 5 2 11 17 19 26 32 31 30 30 32 30 28 24 21 17 14 13 11 11 13 16 18 20 21 22 22 23 23 22 21 22 23 24 24 25
12 12 11 17 13 5 5 11 15 16 9 9 9 6 4 14 21 23 27 31 31 32 33 34 31 28 24 22 20 17 14 11 11 11 13 15 17 18 20 22 23 23 23 23 22 22 22 21 23
18 15 19 12 11 8 9 15 19 17 15 14 1 7 7 18 22 24 30 29 33 32 33 33 34 31 28 24 21 18 15 11 10 11 12 14 15 15 16 19 22 24 25 26 25 22 20 19 21
11 13 16 14 12 15 12 20 10 15 12 12 8 6 6 20 27 25 28 31 32 37 32 30 32 32 31 28 22 18 16 13 11 9 8 13 16 20 23 23 23 22 23 24 24 22 20 18 19
8 11 18 23 15 15 14 21 10 11 11 14 13 5 9 23 27 29 30 33 34 38 34 33 34 31 28 27 23 18 15 15 15 13 11 2 10 16 17 18 18 18 20 20 22 22 20 18 18
15 18 22 3 7 9 15 23 17 14 24 21 21 20 20 22 29 34 36 39 41 41 39 36 35 34 33 30 27 25 21 19 18 17 15 11 10 8 8 11 10 10 11 14 16 18 16 17 18
8 18 3 1 3 5 10 17 15 20 25 25 26 29 30 29 32 36 37 37 41 40 40 40 39 35 37 38 32 29 33 26 24 23 22 18 10 9 8 9 6 4 3 4 7 10 11 10 12
14 9 6 1 4 4 10 6 14 34 29 6 14 15 33 35 38 41 41 40 40 42 42 45 39 40 40 36 40 36 36 35 34 33 31 27 19 19 14 12 10 9 7 6 2 1 4 6 12
18 7 6 4 6 10 5 15 18 31 32 29 22 23 28 33 37 38 39 40 42 46 47 46 46 44 42 43 41 39 42 38 34 36 36 34 27 23 26 22 21 15 15 13 8 4 2 6 13
2 9 8 9 15 12 11 20 3 22 26 37 34 33 33 36 38 38 42 47 50 48 50 48 52 51 43 43 40 46 43 40 38 39 37 40 36 33 31 30 23 21 18 18 15 11 9 10 16
4 9 13 21 18 8 7 21 30 42 23 24 28 35 38 41 38 45 48 49 50 51 48 52 57 61 54 52 44 48 45 43 43 39 43 45 45 40 35 33 28 28 25 23 22 19 17 16 21
8 6 17 11 16 8 11 25 12 6 19 30 32 37 41 42 44 46 46 47 51 51 54 55 64 69 72 63 64 65 54 50 50 48 46 51 53 43 36 38 34 33 30 28 25 31 26 26 29
15 21 17 9 18 8 22 19 7 4 16 25 25 25 34 39 41 47 49 51 50 53 57 64 67 73 74 73 70 60 59 59 58 56 55 49 51 47 42 40 41 38 34 34 31 31 32 33 38
25 21 20 20 12 15 21 35 29 28 26 39 46 46 46 41 38 41 46 52 52 55 57 62 68 73 78 75 71 68 67 66 66 62 58 57 50 50 53 51 46 43 36 42 40 43 44 38 44
14 15 21 18 11 9 26 35 39 42 41 51 56 55 55 56 45 39 42 51 58 59 64 67 71 75 80 77 76 74 75 72 69 64 60 60 57 57 63 59 53 45 38 45 45 49 52 49 52
23 28 31 28 13 8 25 36 41 43 45 58 58 58 56 51 42 41 45 49 59 64 69 71 75 76 81 77 75 75 74 72 70 67 66 64 66 65 68 57 63 50 46 50 55 61 60 53 55
30 33 29 30 15 28 22 34 41 31 35 50 62 65 59 52 43 36 49 54 58 67 73 76 73 75 78 75 75 77 75 74 73 73 74 71 67 64 64 59 60 63 50 48 55 65 66 58 62
33 28 25 23 11 16 1 20 24 21 26 27 41 40 41 34 31 34 40 45 51 58 65 70 70 71 74 72 74 74 73 75 77 78 75 73 68 64 62 60 56 69 57 57 61 73 69 62 72
6 3 13 16 17 21 32 17 13 27 28 30 38 36 28 19 20 18 26 35 36 45 54 62 63 66 69 72 73 67 63 62 72 71 68 73 69 68 65 61 60 61 66 64 66 74 66 66 72
21 14 9 5 10 17 32 29 32 27 37 30 30 9 16 17 14 16 19 24 31 40 46 52 56 60 67 71 70 67 60 64 62 67 63 69 69 68 73 63 60 60 61 67 69 75 65 76 67
24 14 8 10 12 20 4 19 37 7 10 19 22 11 20 18 16 13 13 19 28 33 40 44 49 55 64 65 67 65 64 63 58 57 59 62 66 71 68 64 63 63 65 66 70 70 70 72 69
30 26 14 15 16 24 7 18 13 18 21 26 31 21 17 16 16 20 25 25 25 28 30 35 43 49 55 54 61 62 61 60 57 58 58 56 56 59 63 66 62 62 64 65 65 66 67 71 74
15 24 24 24 3 10 22 36 34 23 22 29 30 25 29 24 22 20 17 16 18 24 23 28 34 43 50 49 51 54 56 57 57 58 55 54 57 59 58 64 63 66 65 66 66 66 69 76 71
19 12 14 11 11 20 30 32 24 10 27 31 28 33 27 20 23 18 14 13 11 11 13 19 26 34 42 47 53 54 54 55 54 55 59 61 58 57 58 60 61 69 74 69 63 64 69 71 67
19 23 15 12 19 11 28 24 8 12 12 26 21 24 25 27 25 24 26 19 11 7 9 13 19 27 37 44 48 50 53 55 56 57 58 57 56 57 59 62 65 70 72 69 68 64 67 63 59
26 34 40 16 16 15 13 40 12 14 10 10 16 19 22 25 28 30 22 12 6 4 8 12 16 23 30 38 45 49 52 53 54 54 58 58 57 58 58 60 62 65 66 65 59 61 53 57 57
Wind_Direction_500mb
191 115 273 278 237 243 128 122 63 138 163 84 101 274 354 2 355 17 143 154 157 155 171 171 165 162 157 142 130 111 92 77 73 72 72 74 77 82 90 93 78 91 96 84 86 84 81 81 83
171 195 273 279 257 233 104 108 173 112 83 128 136 226 255 76 64 116 147 155 154 156 172 173 168 167 164 153 137 120 99 84 77 73 72 70 72 74 84 82 91 97 94 87 86 85 82 84 85
174 186 260 264 285 36 73 133 109 115 121 142 156 246 1 62 117 140 154 153 158 159 164 183 171 171 168 161 149 129 120 103 89 81 77 75 73 72 78 79 89 100 98 94 80 78 79 82 85
149 209 244 254 163 71 8 131 133 146 156 170 254 196 118 156 146 157 158 159 163 165 171 179 174 174 172 170 165 145 131 118 100 91 84 76 71 71 74 76 76 82 84 72 73 72 76 80 83
178 235 242 242 231 12 165 130 165 170 154 167 182 114 122 163 168 159 162 166 168 172 185 179 178 179 180 178 178 166 151 135 114 102 93 86 82 82 81 81 83 85 83 77 75 76 77 77 81
208 257 230 230 201 171 202 179 184 188 161 142 207 233 137 174 177 172 171 172 177 180 194 185 182 185 187 186 188 182 173 155 137 121 102 84 74 72 79 88 92 92 87 82 79 76 75 80 80
256 226 240 259 256 225 210 180 193 198 186 199 197 232 120 181 178 181 176 177 182 190 184 191 188 187 190 192 193 193 187 173 157 140 122 103 86 75 77 83 88 91 90 86 79 74 73 77 87
249 259 236 234 237 247 153 178 204 205 208 176 194 237 179 186 177 173 174 180 184 194 185 186 190 192 193 193 194 199 198 188 166 140 118 99 90 98 93 93 93 92 89 84 75 70 70 75 87
226 245 232 233 236 247 161 195 189 209 207 198 206 230 176 165 173 172 176 183 187 195 191 189 189 192 194 197 188 189 204 197 197 188 166 121 96 117 104 95 95 92 97 88 82 80 85 90 101
228 235 246 343 258 263 193 215 188 209 208 219 221 214 215 186 182 185 188 191 193 195 196 193 195 190 193 201 194 194 210 213 219 214 202 177 150 126 122 108 101 93 86 80 79 82 87 88 105
209 245 10 167 230 263 227 222 210 229 239 229 231 221 216 204 197 200 202 203 201 202 197 201 198 204 206 203 202 206 207 213 214 212 211 208 210 221 209 181 164 156 116 69 78 82 105 123 126
243 242 265 52 191 211 223 266 233 238 239 230 242 234 209 209 208 210 210 208 205 204 204 200 201 205 211 211 207 214 213 219 216 215 213 209 220 223 221 217 197 211 220 223 221 85 111 127 144
235 217 214 196 206 230 254 239 251 260 246 247 248 233 210 216 219 220 217 215 211 208 207 206 197 205 212 215 213 216 215 218 221 221 221 216 222 227 224 221 229 227 220 230 238 249 166 140 150
66 239 239 236 235 231 241 254 210 256 236 240 238 241 234 228 224 221 218 217 213 212 210 206 209 206 207 214 216 226 221 225 224 227 235 226 216 227 226 232 235 234 235 242 240 245 214 169 162
207 262 228 235 229 236 225 250 233 258 235 241 240 242 240 234 226 221 223 218 216 215 211 211 213 212 210 209 211 230 228 228 232 237 239 230 227 227 231 232 233 235 237 234 234 242 225 176 166
234 244 247 130 179 194 199 265 221 213 231 252 257 254 247 241 230 228 224 222 216 214 210 214 218 216 220 222 222 228 233 235 239 242 243 237 232 226 233 238 241 236 235 229 248 230 207 173 167
209 256 213 227 198 168 211 277 115 217 235 258 263 266 256 249 238 234 228 222 221 215 214 219 224 223 226 226 226 231 233 238 238 240 243 240 237 232 231 245 246 236 251 228 235 220 211 181 172
238 223 243 256 158 224 226 258 271 257 257 267 271 269 264 254 245 237 231 225 220 218 219 223 227 225 229 229 229 228 228 233 237 237 237 237 234 237 236 240 235 238 243 237 235 211 202 189 180
288 274 273 269 135 260 255 269 274 271 267 265 266 264 261 256 248 238 234 227 226 224 224 224 226 225 231 229 229 230 233 233 235 234 233 236 234 239 234 238 236 244 249 231 224 209 204 188 186
241 259 261 270 299 240 274 271 274 269 257 257 259 259 259 260 252 235 218 236 234 230 229 227 228 227 232 232 232 233 235 234 236 233 234 238 238 243 231 230 234 235 245 225 227 213 201 197 195
240 250 259 266 305 257 280 273 253 257 256 254 257 256 258 258 255 239 231 238 237 232 229 227 225 227 229 231 231 232 234 234 235 235 233 233 240 239 231 240 247 224 247 235 244 217 208 214 196
256 252 249 261 264 273 271 288 282 268 258 244 249 251 257 252 247 235 233 238 232 236 230 228 223 225 227 226 231 234 237 238 239 239 237 234 234 238 234 247 238 236 234 234 231 219 213 218 206
259 69 213 228 242 289 255 265 274 243 241 251 255 253 244 230 227 222 229 233 228 230 224 225 221 223 227 226 230 234 232 236 240 239 234 237 233 235 239 230 237 235 240 237 233 219 218 219 217
134 116 118 206 256 259 258 243 275 249 235 246 253 207 193 197 202 219 231 232 229 226 220 224 221 224 227 229 230 232 232 237 240 237 232 232 235 236 238 238 241 239 237 234 234 221 216 216 220
197 183 228 231 200 251 333 257 249 275 315 271 266 189 192 201 207 218 235 237 230 224 223 223 219 219 230 230 231 232 236 241 238 237 232 233 234 234 243 238 239 237 236 233 227 221 219 219 224
197 198 213 236 244 269 105 237 259 237 270 238 243 233 198 208 229 246 249 242 234 232 233 228 225 223 232 232 233 234 238 238 234 232 229 237 237 239 243 238 231 238 236 222 219 217 219 224 227
179 218 250 274 6 277 254 259 264 211 231 234 241 233 230 235 241 238 220 216 232 237 235 231 226 221 229 230 230 234 237 236 233 230 233 233 235 234 241 242 246 235 227 222 218 216 219 223 228
242 196 198 219 231 246 254 255 258 215 228 243 229 226 233 211 219 196 164 162 182 214 230 232 234 231 234 232 232 234 237 235 233 232 236 239 242 244 240 244 230 237 228 220 213 215 219 222 226
188 213 218 238 225 250 270 259 308 354 310 238 237 219 206 198 189 172 146 140 144 179 205 220 229 231 232 232 233 236 238 236 232 233 236 240 246 243 244 241 238 234 224 213 213 215 218 216 212
246 216 210 213 207 224 269 270 89 38 348 276 188 172 176 177 169 163 160 162 154 228 261 266 259 250 241 237 234 234 235 236 236 233 235 239 243 245 246 243 237 230 221 219 212 211 219 212 206
Wind_Speed_850mb
4 1 5 7 10 9 7 9 3 7 8 7 6 2 10 10 14 7 19 22 28 32 31 32 28 25 20 15 13 13 14 17 20 23 23 24 23 24 26 26 27 39 23 23 29 30 32 32 32
4 4 3 9 9 8 12 8 7 7 10 9 5 4 6 10 8 11 24 26 31 30 28 32 30 27 21 16 14 14 12 15 18 20 23 24 24 25 24 23 32 31 26 22 27 29 32 31 31
7 8 11 6 7 5 8 5 13 15 14 8 5 3 4 6 6 22 14 33 32 29 27 31 31 28 23 18 15 14 12 13 15 17 20 22 23 24 24 23 25 25 28 21 26 28 30 30 31
4 5 10 14 4 4 5 9 16 21 9 5 1 6 4 6 18 13 26 32 32 29 28 30 31 29 24 21 17 14 13 12 13 15 18 20 22 23 23 23 24 24 21 22 24 24 26 27 28
7 9 12 12 7 0 4 4 15 15 11 11 9 5 2 11 17 19 26 32 31 30 30 32 30 28 24 21 17 14 13 11 11 13 16 18 20 21 22 22 23 23 22 21 22 23 24 24 25
12 12 11 17 13 5 5 11 15 16 9 9 9 6 4 14 21 23 27 31 31 32 33 34 31 28 24 22 20 17 14 11 11 11 13 15 17 18 20 22 23 23 23 23 22 22 22 21 23
18 15 19 12 11 8 9 15 19 17 15 14 1 7 7 18 22 24 30 29 33 32 33 33 34 31 28 24 21 18 15 11 10 11 12 14 15 15 16 19 22 24 25 26 25 22 20 19 21
11 13 16 14 12 15 12 20 10 15 12 12 8 6 6 20 27 25 28 31 32 37 32 30 32 32 31 28 22 18 16 13 11 9 8 13 16 20 23 23 23 22 23 24 24 22 20 18 19
8 11 18 23 15 15 14 21 10 11 11 14 13 5 9 23 27 29 30 33 34 38 34 33 34 31 28 27 23 18 15 15 15 13 11 2 10 16 17 18 18 18 20 20 22 22 20 18 18
15 18 22 3 7 9 15 23 17 14 24 21 21 20 20 22 29 34 36 39 41 41 39 36 35 34 33 30 27 25 21 19 18 17 15 11 10 8 8 11 10 10 11 14 16 18 16 17 18
8 18 3 1 3 5 10 17 15 20 25 25 26 29 30 29 32 36 37 37 41 40 40 40 39 35 37 38 32 29 33 26 24 23 22 18 10 9 8 9 6 4 3 4 7 10 11 10 12
14 9 6 1 4 4 10 6 14 34 29 6 14 15 33 35 38 41 41 40 40 42 42 45 39 40 40 36 40 36 36 35 34 33 31 27 19 19 14 12 10 9 7 6 2 1 4 6 12
18 7 6 4 6 10 5 15 18 31 32 29 22 23 28 33 37 38 39 40 42 46 47 46 46 44 42 43 41 39 42 38 34 36 36 34 27 23 26 22 21 15 15 13 8 4 2 6 13
2 9 8 9 15 12 11 20 3 22 26 37 34 33 33 36 38 38 42 47 50 48 50 48 52 51 43 43 40 46 43 40 38 39 37 40 36 33 31 30 23 21 18 18 15 11 9 10 16
4 9 13 21 18 8 7 21 30 42 23 24 28 35 38 41 38 45 48 49 50 51 48 52 57 61 54 52 44 48 45 43 43 39 43 45 45 40 35 33 28 28 25 23 22 19 17 16 21
8 6 17 11 16 8 11 25 12 6 19 30 32 37 41 42 44 46 46 47 51 51 54 55 64 69 72 63 64 65 54 50 50 48 46 51 53 43 36 38 34 33 30 28 25 31 26 26 29
15 21 17 9 18 8 22 19 7 4 16 25 25 25 34 39 41 47 49 51 50 53 57 64 67 73 74 73 70 60 59 59 58 56 55 49 51 47 42 40 41 38 34 34 31 31 32 33 38
25 21 20 20 12 15 21 35 29 28 26 39 46 46 46 41 38 41 46 52 52 55 57 62 68 73 78 75 71 68 67 66 66 62 58 57 50 50 53 51 46 43 36 42 40 43 44 38 44
14 15 21 18 11 9 26 35 39 42 41 51 56 55 55 56 45 39 42 51 58 59 64 67 71 75 80 77 76 74 75 72 69 64 60 60 57 57 63 59 53 45 38 45 45 49 52 49 52
23 28 31 28 13 8 25 36 41 43 45 58 58 58 56 51 42 41 45 49 59 64 69 71 75 76 81 77 75 75 74 72 70 67 66 64 66 65 68 57 63 50 46 50 55 61 60 53 55
30 33 29 30 15 28 22 34 41 31 35 50 62 65 59 52 43 36 49 54 58 67 73 76 73 75 78 75 75 77 75 74 73 73 74 71 67 64 64 59 60 63 50 48 55 65 66 58 62
33 28 25 23 11 16 1 20 24 21 26 27 41 40 41 34 31 34 40 45 51 58 65 70 70 71 74 72 74 74 73 75 77 78 75 73 68 64 62 60 56 69 57 57 61 73 69 62 72
6 3 13 16 17 21 32 17 13 27 28 30 38 36 28 19 20 18 26 35 36 45 54 62 63 66 69 72 73 67 63 62 72 71 68 73 69 68 65 61 60 61 66 64 66 74 66 66 72
21 14 9 5 10 17 32 29 32 27 37 30 30 9 16 17 14 16 19 24 31 40 46 52 56 60 67 71 70 67 60 64 62 67 63 69 69 68 73 63 60 60 61 67 69 75 65 76 67
24 14 8 10 12 20 4 19 37 7 10 19 22 11 20 18 16 13 13 19 28 33 40 44 49 55 64 65 67 65 64 63 58 57 59 62 66 71 68 64 63 63 65 66 70 70 70 72 69
30 26 14 15 16 24 7 18 13 18 21 26 31 21 17 16 16 20 25 25 25 28 30 35 43 49 55 54 61 62 61 60 57 58 58 56 56 59 63 66 62 62 64 65 65 66 67 71 74
15 24 24 24 3 10 22 36 34 23 22 29 30 25 29 24 22 20 17 16 18 24 23 28 34 43 50 49 51 54 56 57 57 58 55 54 57 59 58 64 63 66 65 66 66 66 69 76 71
19 12 14 11 11 20 30 32 24 10 27 31 28 33 27 20 23 18 14 13 11 11 13 19 26 34 42 47 53 54 54 55 54 55 59 61 58 57 58 60 61 69 74 69 63 64 69 71 67
19 23 15 12 19 11 28 24 8 12 12 26 21 24 25 27 25 24 26 19 11 7 9 13 19 27 37 44 48 50 53 55 56 57 58 57 56 57 59 62 65 70 72 69 68 64 67 63 59
26 34 40 16 16 15 13 40 12 14 10 10 16 19 22 25 28 30 22 12 6 4 8 12 16 23 30 38 45 49 52 53 54 54 58 58 57 58 58 60 62 65 66 65 59 61 53 57 57
Wind_Direction_850mb
191 115 273 278 237 243 128 122 63 138 163 84 101 274 354 2 355 17 143 154 157 155 171 171 165 162 157 142 130 111 92 77 73 72 72 74 77 82 90 93 78 91 96 84 86 84 81 81 83
171 195 273 279 257 233 104 108 173 112 83 128 136 226 255 76 64 116 147 155 154 156 172 173 168 167 164 153 137 120 99 84 77 73 72 70 72 74 84 82 91 97 94 87 86 85 82 84 85
174 186 260 264 285 36 73 133 109 115 121 142 156 246 1 62 117 140 154 153 158 159 164 183 171 171 168 161 149 129 120 103 89 81 77 75 73 72 78 79 89 100 98 94 80 78 79 82 85
149 209 244 254 163 71 8 131 133 146 156 170 254 196 118 156 146 157 158 159 163 165 171 179 174 174 172 170 165 145 131 118 100 91 84 76 71 71 74 76 76 82 84 72 73 72 76 80 83
178 235 242 242 231 12 165 130 165 170 154 167 182 114 122 163 168 159 162 166 168 172 185 179 178 179 180 178 178 166 151 135 114 102 93 86 82 82 81 81 83 85 83 77 75 76 77 77 81
208 257 230 230 201 171 202 179 184 188 161 142 207 233 137 174 177 172 171 172 177 180 194 185 182 185 187 186 188 182 173 155 137 121 102 84 74 72 79 88 92 92 87 82 79 76 75 80 80
256 226 240 259 256 225 210 180 193 198 186 199 197 232 120 181 178 181 176 177 182 190 184 191 188 187 190 192 193 193 187 173 157 140 122 103 86 75 77 83 88 91 90 86 79 74 73 77 87
249 259 236 234 237 247 153 178 204 205 208 176 194 237 179 186 177 173 174 180 184 194 185 186 190 192 193 193 194 199 198 188 166 140 118 99 90 98 93 93 93 92 89 84 75 70 70 75 87
226 245 232 233 236 247 161 195 189 209 207 198 206 230 176 165 173 172 176 183 187 195 191 189 189 192 194 197 188 189 204 197 197 188 166 121 96 117 104 95 95 92 97 88 82 80 85 90 101
228 235 246 343 258 263 193 215 188 209 208 219 221 214 215 186 182 185 188 191 193 195 196 193 195 190 193 201 194 194 210 213 219 214 202 177 150 126 122 108 101 93 86 80 79 82 87 88 105
209 245 10 167 230 263 227 222 210 229 239 229 231 221 216 204 197 200 202 203 201 202 197 201 198 204 206 203 202 206 207 213 214 212 211 208 210 221 209 181 164 156 116 69 78 82 105 123 126
243 242 265 52 191 211 223 266 233 238 239 230 242 234 209 209 208 210 210 208 205 204 204 200 201 205 211 211 207 214 213 219 216 215 213 209 220 223 221 217 197 211 220 223 221 85 111 127 144
235 217 214 196 206 230 254 239 251 260 246 247 248 233 210 216 219 220 217 215 211 208 207 206 197 205 212 215 213 216 215 218 221 221 221 216 222 227 224 221 229 227 220 230 238 249 166 140 150
66 239 239 236 235 231 241 254 210 256 236 240 238 241 234 228 224 221 218 217 213 212 210 206 209 206 207 214 216 226 221 225 224 227 235 226 216 227 226 232 235 234 235 242 240 245 214 169 162
207 262 228 235 229 236 225 250 233 258 235 241 240 242 240 234 226 221 223 218 216 215 211 211 213 212 210 209 211 230 228 228 232 237 239 230 227 227 231 232 233 235 237 234 234 242 225 176 166
234 244 247 130 179 194 199 265 221 213 231 252 257 254 247 241 230 228 224 222 216 214 210 214 218 216 220 222 222 228 233 235 239 242 243 237 232 226 233 238 241 236 235 229 248 230 207 173 167
209 256 213 227 198 168 211 277 115 217 235 258 263 266 256 249 238 234 228 222 221 215 214 219 224 223 226 226 226 231 233 238 238 240 243 240 237 232 231 245 246 236 251 228 235 220 211 181 172
238 223 243 256 158 224 226 258 271 257 257 267 271 269 264 254 245 237 231 225 220 218 219 223 227 225 229 229 229 228 228 233 237 237 237 237 234 237 236 240 235 238 243 237 235 211 202 189 180
288 274 273 269 135 260 255 269 274 271 267 265 266 264 261 256 248 238 234 227 226 224 224 224 226 225 231 229 229 230 233 233 235 234 233 236 234 239 234 238 236 244 249 231 224 209 204 188 186
241 259 261 270 299 240 274 271 274 269 257 257 259 259 259 260 252 235 218 236 234 230 229 227 228 227 232 232 232 233 235 234 236 233 234 238 238 243 231 230 234 235 245 225 227 213 201 197 195
240 250 259 266 305 257 280 273 253 257 256 254 257 256 258 258 255 239 231 238 237 232 229 227 225 227 229 231 231 232 234 234 235 235 233 233 240 239 231 240 247 224 247 235 244 217 208 214 196
256 252 249 261 264 273 271 288 282 268 258 244 249 251 257 252 247 235 233 238 232 236 230 228 223 225 227 226 231 234 237 238 239 239 237 234 234 238 234 247 238 236 234 234 231 219 213 218 206
259 69 213 228 242 289 255 265 274 243 241 251 255 253 244 230 227 222 229 233 228 230 224 225 221 223 227 226 230 234 232 236 240 239 234 237 233 235 239 230 237 235 240 237 233 219 218 219 217
134 116 118 206 256 259 258 243 275 249 235 246 253 207 193 197 202 219 231 232 229 226 220 224 221 224 227 229 230 232 232 237 240 237 232 232 235 236 238 238 241 239 237 234 234 221 216 216 220
197 183 228 231 200 251 333 257 249 275 315 271 266 189 192 201 207 218 235 237 230 224 223 223 219 219 230 230 231 232 236 241 238 237 232 233 234 234 243 238 239 237 236 233 227 221 219 219 224
197 198 213 236 244 269 105 237 259 237 270 238 243 233 198 208 229 246 249 242 234 232 233 228 225 223 232 232 233 234 238 238 234 232 229 237 237 239 243 238 231 238 236 222 219 217 219 224 227
179 218 250 274 6 277 254 259 264 211 231 234 241 233 230 235 241 238 220 216 232 237 235 231 226 221 229 230 230 234 237 236 233 230 233 233 235 234 241 242 246 235 227 222 218 216 219 223 228
242 196 198 219 231 246 254 255 258 215 228 243 229 226 233 211 219 196 164 162 182 214 230 232 234 231 234 232 232 234 237 235 233 232 236 239 242 244 240 244 230 237 228 220 213 215 219 222 226
188 213 218 238 225 250 270 259 308 354 310 238 237 219 206 198 189 172 146 140 144 179 205 220 229 231 232 232 233 236 238 236 232 233 236 240 246 243 244 241 238 234 224 213 213 215 218 216 212
246 216 210 213 207 224 269 270 89 38 348 276 188 172 176 177 169 163 160 162 154 228 261 266 259 250 241 237 234 234 235 236 236 233 235 239 243 245 246 243 237 230 221 219 212 211 219 212 206